Regional Weather Roundup
Issued by NWS

Home | Current Version | Previous Version | Text Only | Print | Product List | Glossary Off
Versions: 1 2 3 4 5 6 7 8 9 10 11 12 13 14 15 16 17 18 19 20 21 22 23 24 25 26 27 28 29 30 31 32 33 34 35 36 37 38 39 40 41 42 43 44 45 46 47 48 49 50

000
ASUS43 KDTX 251710
RWRMI
MICHIGAN HOURLY REGIONAL WEATHER ROUNDUP
NATIONAL WEATHER SERVICE DETROIT/PONTIAC MI
1200 PM EST THU DEC 25 2014

NOTE: "FAIR" INDICATES FEW OR NO CLOUDS BELOW 12,000 FEET WITH NO
SIGNIFICANT WEATHER AND/OR OBSTRUCTION TO VISIBILITY.

MIZ047>049-052>055-059>063-066>070-074>076-081>083-251800-
SOUTHEAST LOWER MICHIGAN

CITY           SKY/WX    TMP DP  RH WIND       PRES   REMARKS
ADRIAN         CLOUDY    37  30  75 W12G22    29.97R
ALMA           CLOUDY    36  31  84 SW14G22   29.89R
ANN ARBOR      CLOUDY    39  30  70 W12       29.93R
BAD AXE        MOSUNNY   38  33  81 W16G24    29.84R
DETROIT CITY   CLOUDY    41  31  67 W13G22    29.93S
DETROIT        CLOUDY    40  31  70 SW13      29.94S
FLINT          CLOUDY    39  30  70 W12G23    29.90S
GROSSE ILE     CLOUDY    39  34  81 SW10G20   29.94R
HILLSDALE      CLOUDY    35  30  82 W12G21    29.94S
HOWELL         CLOUDY    36  31  84 SW13      29.91R

CITY           SKY/WX    TMP DP  RH WIND       PRES   REMARKS
JACKSON        CLOUDY    36  29  75 W12       29.93R
LAMBERTVILLE   CLOUDY    39  32  75 SW10G20   29.98R
LANSING        CLOUDY    36  30  79 SW12      29.91S
LAPEER         NOT AVBL
MASON          CLOUDY    35  30  80 SW7G16    29.92R
MONROE         CLOUDY    39  34  81 W14G21    29.94F
MT. CLEMENS    CLOUDY    39  37  92 W15       29.89R
PONTIAC        CLOUDY    37  29  72 W16G25    29.89R
PORT HOPE        N/A     39  28  64 W17G26    29.81R
PORT HURON     CLOUDY    37  32  81 W7        29.89S
TRI CITIES     CLOUDY    38  30  73 SW13      29.87R
YPSILANTI      CLOUDY    42  30  62 W17G24    29.94R
$$
MIZ043>046-050>051-056>058-064>065-071>073-077>080-251800-
SOUTHWEST LOWER MICHIGAN

CITY           SKY/WX    TMP DP  RH WIND       PRES   REMARKS
BATTLE CREEK   CLOUDY    36  29  75 SW17      29.95R
BENTON HARBOR  CLOUDY    35  29  78 SW16G25   29.97R
BIG RAPIDS     CLOUDY    35  32  88 W9        29.85R
COLDWATER      CLOUDY    34  30  83 MISG      29.96S
HOLLAND        CLOUDY    38  30  73 SW18G24   29.94R
GRAND RAPIDS   CLOUDY    36  29  75 SW16      29.92R
KALAMAZOO      CLOUDY    35  28  75 SW17G24   29.97R
MARSHALL       CLOUDY    34  29  82 SW13      29.94R
MUSKEGON       CLOUDY    37  30  75 SW16G24   29.92R
$$
MIZ016>042-251800-
NORTHERN LOWER MICHIGAN

CITY           SKY/WX    TMP DP  RH WIND       PRES   REMARKS
ALPENA         CLOUDY    36  32  85 SW12      29.75R
BEAVER ISLAND  CLOUDY    37  32  81 W15G25    29.73R
BELLAIRE       CLOUDY    38  30  74 SW7       29.78R
CADILLAC       CLOUDY    33  30  89 SW10G18   29.79S
CHARLEVOIX     CLOUDY    37  32  82 W18G24    29.77S
FRANKFORT      CLOUDY    37  31  80 W12G23    29.80S
GAYLORD        CLOUDY    33  29  85 W22G30    29.73R
GRAYLING       CLOUDY    34  29  85 SW9G18    29.78R
HARBOR SPRINGS CLOUDY    36  31  83 W12G21    29.73S
HOUGHTON LAKE  CLOUDY    34  27  75 W18G29    29.80R
MANISTEE       CLOUDY    37  28  70 W13G18    29.83S
OSCODA         CLOUDY    38  32  79 W14G20    29.78S
PELLSTON       CLOUDY    36  29  75 W15G26    29.72S
TRAVERSE CITY  CLOUDY    38  29  70 SW9G20    29.79R
$$
MIZ007>008-015-251800-
EASTERN UPPER MICHIGAN

CITY           SKY/WX    TMP DP  RH WIND       PRES   REMARKS
KINROSS        CLOUDY    36  32  87 W15G22    29.67R
MACKINAC ISLAN CLOUDY    36  32  87 W14G25    29.70S
NEWBERRY       CLOUDY    33  30  90 SW10      29.67S
S. S. MARIE    PTSUNNY   37  30  75 W18G24    29.65R
$$
MIZ004>006-011>014-085-251800-
CENTRAL UPPER MICHIGAN

CITY           SKY/WX    TMP DP  RH WIND       PRES   REMARKS
MANISTIQUE     CLOUDY    35  32  88 MISG      29.71R
ESCANABA       CLOUDY    36  28  75 W10       29.72R
MENOMINEE      CLOUDY    36  28  75 W10G16    29.77R
SAWYER-GWINN   CLOUDY    32  28  86 SW10      29.67R
$$
MIZ001>003-009>011-084-251800-
WESTERN UPPER MICHIGAN

CITY           SKY/WX    TMP DP  RH WIND       PRES   REMARKS
IRON MOUNTAIN  CLOUDY    33  28  81 SW10      29.69R
HOUGHTON       CLOUDY    33  29  85 W12       29.63R
COPPER HARBOR    N/A     36  31  82 VRB5      29.63R
IRONWOOD       CLOUDY    32  28  86 SW12      29.65R
$$

ABBREVIATIONS USED IN REMARKS
   TC - TEMPERATURE IN CELSIUS
  WCI - WIND CHILL INDEX
   HX - HEAT INDEX
  VSB - VISIBILITY




USA.gov is the U.S. government's official web portal to all federal, state and local government web resources and services.